Location: Cuzcurrita-R�o Tir�n
(42.5415°N, 2.9642°W)
Time: 21:33:56
(UTC+00:00)

MOS 1 Rocket - Pass Details

Date: 17 January 2021
Orbit: 614 x 830 km, 97.4° (Epoch: 03 March)

Event Time Altitude Azimuth Distance (km) Brightness Sun altitude
Rises 17:52:48 0° 21° (NNE) 2,942 6.1 -8.6°
Reaches altitude 10° 17:55:14 10° 32° (NNE) 2,009 5.2 -9.0°
Maximum altitude 17:59:08 32° 96° (E) 1,073 3.8 -9.7°
Drops below altitude 10° 18:02:56 10° 159° (SSE) 1,968 5.6 -10.4°
Sets 18:05:17 0° 170° (S) 2,871 6.6 -10.8°
